LEMUR-2-ZACHARY (42845 NORAD) Tracking and Keplerian Element Data

This shows tracking and keplerian element data for the satellite.

Feedback or suggestion? Click here.




ElementValue
Catalog42845
NameLEMUR-2-ZACHARY
Epoch Orbit37625
Epoch Day158.50296538
Epoch Year2024
RAAN349.5387
Inclination97.3766
Eccentricity0.0009675
Argument of Perigee112.1291
Mean Anonmoly248.0965
Mean Motion15.07510957
Decay Rate0.00015262
L11 42845U 17042W 24158.50296538 .00015262 00000+0 10068-2 0 9997
L22 42845 97.3766 349.5387 0009675 112.1291 248.0965 15.07510957376253



Live tracking and technical data element details for LEMUR-2-ZACHARY (NORAD 42845). LEMUR-2-ZACHARY can be tracked NOW for your location showing map with azimuth and elevation plus other details from your city location.







IsCatalogInMostPopularTable: catalog: 42845, numindb: 599
Update: records affected: 1



GetName: 42845 LEMUR-2-ZACHARY

Hit Count: updated at: Fri, 14 Jun 2024 19:30:04 GMT